www.pogodaiklimat.ru

Погода и климат >> Архив погоды >> Гондурас >> Choluteca


ПОГОДА в Choluteca

  • Прогноз погоды в Choluteca
  • Монитор погоды в Choluteca
  • Климат города

АРХИВ ПОГОДЫ в Choluteca

Время (UTC), дата Ветер
(напр.,м/с)
 
Видим.   Явления Облачность Т
(С)
Тd
(С)
f
(%)
Тe
(С)
Тes
(С)
Комфортность P
(гПа)
Po
(гПа)
Тmin
(С)
Tmax
(С)
R
(мм)
R24
(мм)
S
(см)
12 13.07 штиль 0 15 км мгла 9/3 900 м
[Sc Ac As]
+27.0 +24.1 84 +37 +38 очень
душно
1012.7 1007.0 +27.0 +37.4 0.2
15 13.07 СВ 7 15 км мгла {туман} 3/3 900 м
[Cu hum]
+31.2 +23.6 64 +42 +45 опасность
перегрева
1013.7 1008.0
18 13.07 С 7 15 км пыль {туман, метель} 3/3 1020 м
[Cu hum]
+35.2 +23.3 50 +46 +49 опасность
перегрева
1012.9 1007.2 +27.0 +35.2
21 13.07 СВ 7 15 км пыль {туман} 4/4 1020 м
[Cu hum]
+37.0 +21.4 41 +45 +46 опасность
перегрева
1012.7 1007.0
00 14.07 СВ 7 15 км пыль {туман} 3/3 1020 м
[Cu hum]
+32.8 +22.0 53 +41 +41 опасность
перегрева
1014.1 1008.4 +27.0 +37.0
12 14.07 СВ 5 20 км пыль 3/3 900 м
[Sc diur, vesp]
+25.0 +20.0 74 +31 +31 очень
душно
1013.7 1008.0 +25.0 +37.0
15 14.07 СВ 8 10 км пыль {туман} 3/3 1020 м
[Cu hum]
+30.8 +21.9 59 +39 +41 очень
душно
1010.9 1009.2
18 14.07 С 6 10 км пыль {туман} 3/3 1020 м
[Cu hum]
+34.8 +22.0 47 +43 +49 опасность
перегрева
1013.9 1008.2 +25.0 +34.8
21 14.07 С 7 20 км пыль {туман} 3/3 1020 м
[Cu hum]
+37.2 +21.3 40 +44 +46 опасность
перегрева
1012.4 1006.7
00 15.07 СВ 6 20 км пыль {туман} 5/3 1020 м
[Cu hum Ci fib]
+34.0 +21.9 49 +42 +42 опасность
перегрева
1013.4 1007.7 +25.0 +37.2
12 15.07 штиль 0 20 км мгла 8/3 900 м
[Sc Ac trans Cs]
+27.2 +20.7 68 +34 +34 очень
душно
1013.6 1006.9 +27.2 +37.2
15 15.07 штиль 0 25 км мгла {туман} 9/4 960 м
[Cu hum Ac As]
+29.6 +22.3 65 +39 +43 очень
душно
1014.2 1008.5
18 15.07 СВ 6 28 км мгла {туман} 6/4 1020 м
[Cu hum Ac trans Ci fib]
+34.8 +22.0 47 +43 +47 опасность
перегрева
1013.3 1007.6 +27.2 +34.8
21 15.07 С 6 14 км мгла {туман} 8/5 1020 м
[Cu hum Ac trans]
+34.1 +22.1 50 +43 +44 опасность
перегрева
1013.2 1007.5
00 16.07 СВ 6 28 км мгла {туман} 9/4 960 м
[Cu med, cong Ac trans]
+33.8 +22.3 51 +43 +43 опасность
перегрева
1013.7 1008.0 +27.2 +35.0
12 16.07 СВ 3 25 км мгла 8/1 900 м
[Sc Ac trans Cs]
+27.4 +20.9 68 +34 +35 очень
душно
1018.9 1008.2 +27.4 +35.0
15 16.07 С 5 28 км мгла {туман} 8/3 960 м
[Cu hum Ac trans Cs]
+32.0 +22.6 58 +42 +45 опасность
перегрева
1013.6 1008.9
18 16.07 С 6 28 км мгла {туман} 6/5 1020 м
[Cu hum Ac trans Ci fib]
+35.0 +22.4 48 +44 +48 опасность
перегрева
1013.7 1008.0 +27.4 +35.0
21 16.07 СВ 7 20 км мгла {туман} 8/4 1020 м
[Cu hum Cs]
+38.0 +21.4 38 +45 +46 опасность
перегрева
1013.9 1008.2
00 17.07 СВ 5 28 км мгла {туман} 9/4 960 м
[Cu hum Cs]
+32.2 +21.5 53 +40 +40 очень
душно
1013.8 1003.1 +24.4 +38.0
12 17.07 С 7 20 км пыль 9/3 900 м
[Cu hum Ac trans Ci fib]
+28.0 +21.4 67 +35 +35 очень
душно
1013.2 1007.5 +28.0 +38.0
15 17.07 С 5 20 км пыль {туман} 9/3 900 м
[Cu hum Ac As]
+29.8 +21.3 60 +37 +39 очень
душно
1014.4 1008.7
18 17.07 СВ 5 20 км пыль {туман} 9/3 1020 м
[Cu hum Ac trans]
+32.2 +20.5 50 +39 +43 очень
душно
1013.2 1007.5 +28.0 +32.2
21 17.07 С 5 20 км пыль {туман} 9/3 1020 м
[Cu hum Ac As]
+32.0 +20.8 52 +39 +41 очень
душно
1012.7 1007.0
00 18.07 С 7 20 км пыль {туман} 9/3 900 м
[Cu hum Ac As]
+30.0 +21.2 59 +38 +38 очень
душно
1014.1 1008.4 +28.0 +34.0
12 18.07 С 5 20 км мгла 8/4 900 м
[Cu hum Ac trans]
+27.8 +20.9 66 +35 +35 очень
душно
1014.1 1008.4 +27.8 +34.0
15 18.07 С 6 15 км осадки на расстоянии {туман} 9/4 900 м
[Cu hum Ac As]
+29.8 +2.0 17 +27 +29 жарко 1014.1 1008.4
18 18.07 С 5 15 км мгла {морось} 9/5 960 м
[Cu med, cong Ac As]
+33.1 +8.5 22 +41 +43 опасность
перегрева
1013.5 1007.8 +27.8 +33.1 0.0
21 18.07 СВ 5 28 км мгла {туман} 8/5 1020 м
[Cu med, cong Ac trans Ci fib]
+37.4 +21.4 40 +45 +47 опасность
перегрева
1014.4 1008.7
00 19.07 СВ 4 28 км мгла {туман} 6/4 1020 м
[Cu med, cong Ac trans Ci fib]
+34.0 +21.9 49 +42 +42 опасность
перегрева
1013.2 1007.5 +27.8 +37.4
12 19.07 С 7 20 км пыль 8/3 900 м
[Sc Cs]
+27.4 +19.6 62 +33 +33 очень
душно
1013.7 1008.0 +27.4 +37.4
15 19.07 СВ 7 20 км пыль {туман} 9/3 900 м
[Cu hum Cs]
+31.2 +20.5 53 +38 +40 очень
душно
1014.7 1009.0
18 19.07 СВ 7 20 км пыль {туман} 8/4 1020 м
[Cu hum Ci fib]
+35.8 +21.6 44 +44 +47 опасность
перегрева
1013.9 1008.2 +27.4 +35.8
21 19.07 С 8 20 км пыль {туман} 8/5 1020 м
[Cu hum Ci fib]
+37.4 +20.7 38 +44 +45 опасность
перегрева
1013.2 1007.5
00 20.07 С 7 20 км пыль {туман} 9/3 1020 м
[Cu hum Cs]
+34.0 +21.5 48 +42 +42 опасность
перегрева
1014.2 1008.5 +27.4 +37.4

 

Местоположение метеостанции Choluteca (Гондурас): широта 13.30 долгота -87.18 высота над уровнем моря 48 м.

В архиве по умолчанию представлена погода в Choluteca за последнюю неделю. Архивные данные за месяц целиком и за предыдущие месяцы, начиная с января 2011 года, Вы можете получить, выбрав интересующий диапазон дат из раскрывающегося списка и нажав кнопку "Ввод!".


*Определитесь, кто Вы:
робот инопланетянин человек

Внимание! Время в таблицах - всемирное. Для получения местного времени необходимо прибавить поправку, которая в Choluteca равна -6 ч.

Смотрите также архив погоды в соседних городах и на ближайших метеорологических станциях:

Погода в Amapala (Гондурас) (51 км)
Погода в Chinandega (Никарагуа) (75 км)
Погода в Tegucigalpa (Гондурас) (83 км)
Погода в Jinotega (Никарагуа) (132 км)
Погода в La Esperanza (Гондурас) (155 км)
Погода в Managua (Никарагуа) (168 км)
Погода в Yoro (Гондурас) (208 км)
Погода в Catacamas (Гондурас) (223 км)
Погода в Juigalpa (Никарагуа) (237 км)
Погода в Santa Rosa De Copan (Гондурас) (239 км)

Пояснения к столбцам:

Ветер - указаны скорость ветра в м/с - средняя за 10 мин, порывы в срок и между сроками (в фигурных скобках) и направление, откуда дует ветер: С - северный, СВ - северо-восточный, В - восточный, ЮВ - юго-восточный, Ю - южный, ЮЗ - юго-западный, З - западный, СЗ - северо-западный.
Видимость - горизонтальная дальность видимости в метрах или километрах. При видимости от 1 до 10 км при отсутствии осадков обычно наблюдается дымка, при ухудшении видимости до 1 км и менее - туман. В сухую погоду видимость может ухудшаться дымом, пылью или мглою.
Явления - указаны атмосферные явления, наблюдавшиеся в срок или в последний час перед сроком; фигурными скобками обозначены явления, наблюдавшиеся между сроками (за 1-3 часа до срока); квадратными скобками обозначены град или гололедные отложения с указанием их диаметра в мм.
Облачность - указаны через наклонную черту общая и нижняя облачность в баллах и высота нижней границы облаков в метрах; квадратными скобками обозначены формы облаков: Ci - перистые, Cs - перисто-слоистые, Cc - перисто-кучевые, Ac - высококучевые, As - высокослоистые, Sc - слоисто-кучевые, Ns - слоисто-дождевые, Cu - кучевые, Cb - кучево-дождевые. Подробнее классификацию облаков см. в Атласе облаков (PDF).
T - Температура воздуха - температура, измеренная на высоте 2 м над землей.
Td - Температура точки росы - температура, при понижении до которой содержащийся в воздухе водяной пар достигнет насыщения.
f - Относительная влажность воздуха - влажноcть воздуха, измеренная на высоте 2 м над землей.
Te - Эффективная температура - температура, которую ощущает одетый по сезону человек в тени. Характеристика душности погоды. При расчете учитывается влияние влажности воздуха и скорости ветра на теплоощущения человека.
Tes - Эффективная температура на солнце - температура, которую ощущает человек, с поправкой на солнечный нагрев. Характеристика знойности погоды. Зависит от высоты солнца над горизонтом, облачности и скорости ветра. Ночью, в пасмурную погоду, а также при ветре 12 м/с и более поправка равна нулю.
P - Атмосферное давление - приведенное к уровню моря атмосферное давление.
Po - Атмосферное давление - измеренное на уровне метеостанции атмосферное давление.
Tmin - Минимальная температура - минимум температуры воздуха на высоте 2 м над землей.
Tmax - Максимальная температура - максимум температуры воздуха на высоте 2 м над землей.
R - Количество осадков - Количество выпавших осадков за период времени, мм. При наведении курсора мыши на число - период времени, за который выпало указанное количество осадков.
R24 - Количество осадков - Количество выпавших осадков за 24 часа, мм.
S - Снежный покров - Высота снежного покрова, см. При наведении курсора мыши на число - состояние снежного покрова и степень покрытия местности в баллах.